TimeMDT,TemperatureF,Dew PointF,Humidity,Sea Level PressureIn,VisibilityMPH,Wind Direction,Wind SpeedMPH,Gust SpeedMPH,PrecipitationIn,Events,Conditions,WindDirDegrees,DateUTC
12:15 AM,30.2,24.8,80,29.83,7.0,WNW,5.8,-,N/A,,Overcast,300,2013-04-17 06:15:00
12:35 AM,30.2,26.6,86,29.82,4.0,WNW,6.9,-,N/A,Snow,Light Snow,300,2013-04-17 06:35:00
12:55 AM,30.2,26.6,86,29.82,7.0,North,5.8,-,N/A,Snow,Light Snow,350,2013-04-17 06:55:00
1:15 AM,30.2,26.6,86,29.81,7.0,North,6.9,-,N/A,Snow,Light Snow,10,2013-04-17 07:15:00
1:35 AM,30.2,26.6,86,29.81,10.0,SSE,3.5,-,N/A,,Overcast,160,2013-04-17 07:35:00
1:55 AM,30.2,26.6,86,29.81,4.0,ESE,3.5,-,N/A,Snow,Light Snow,110,2013-04-17 07:55:00
2:15 AM,30.2,28.4,93,29.80,2.0,ESE,3.5,-,N/A,Snow,Light Snow,120,2013-04-17 08:15:00
2:35 AM,30.2,28.4,93,29.79,2.5,ESE,4.6,-,0.01,Snow,Light Snow,110,2013-04-17 08:35:00
2:55 AM,30.2,28.4,93,29.78,1.8,East,3.5,-,0.01,Snow,Light Snow,100,2013-04-17 08:55:00
3:14 AM,30.2,26.6,86,29.79,1.8,Calm,Calm,-,N/A,Snow,Light Snow,0,2013-04-17 09:14:00
3:34 AM,28.4,24.8,86,29.78,1.5,NNW,3.5,-,N/A,Snow,Light Snow,340,2013-04-17 09:34:00
3:54 AM,28.4,24.8,86,29.78,1.0,Calm,Calm,-,N/A,Snow,Light Snow,0,2013-04-17 09:54:00
4:15 AM,28.4,24.8,86,29.78,1.8,Calm,Calm,-,N/A,Snow,Light Snow,0,2013-04-17 10:15:00
4:35 AM,28.4,24.8,86,29.78,2.0,North,3.5,-,N/A,Snow,Light Snow,360,2013-04-17 10:35:00
4:54 AM,28.4,24.8,86,29.77,1.2,Calm,Calm,-,0.01,Snow,Light Snow,0,2013-04-17 10:54:00
5:15 AM,26.6,24.8,93,29.78,4.0,Calm,Calm,-,N/A,Snow,Light Snow,0,2013-04-17 11:15:00
5:35 AM,26.6,23.0,86,29.77,10.0,Calm,Calm,-,N/A,Snow,Light Snow,0,2013-04-17 11:35:00
5:55 AM,23.0,21.2,93,29.77,10.0,SE,5.8,-,N/A,Snow,Light Snow,130,2013-04-17 11:55:00
6:15 AM,23.0,21.2,93,29.77,10.0,ESE,5.8,-,N/A,,Mostly Cloudy,110,2013-04-17 12:15:00
6:35 AM,24.8,23.0,93,29.77,10.0,ESE,5.8,-,N/A,,Overcast,120,2013-04-17 12:35:00
6:55 AM,24.8,21.2,86,29.76,10.0,Calm,Calm,-,N/A,,Overcast,0,2013-04-17 12:55:00
7:15 AM,24.8,21.2,86,29.76,3.0,Calm,Calm,-,N/A,Snow,Light Snow,0,2013-04-17 13:15:00
7:34 AM,23.0,21.2,93,29.75,0.5,Calm,Calm,-,0.01,Snow,Snow,0,2013-04-17 13:34:00
8:15 AM,23.0,21.2,93,29.75,0.8,Calm,Calm,-,N/A,Snow,Light Snow,0,2013-04-17 14:15:00
8:35 AM,23.0,21.2,93,29.75,0.2,NNW,5.8,-,N/A,Snow,Heavy Snow,340,2013-04-17 14:35:00
8:55 AM,23.0,21.2,93,29.74,0.2,Calm,Calm,-,0.01,Snow,Snow,0,2013-04-17 14:55:00
9:15 AM,24.8,21.2,86,29.74,0.2,South,3.5,-,N/A,Snow,Snow,170,2013-04-17 15:15:00
9:35 AM,24.8,21.2,86,29.74,1.0,South,3.5,-,0.02,Snow,Light Snow,170,2013-04-17 15:35:00
9:55 AM,26.6,23.0,86,29.72,0.5,Calm,Calm,-,0.04,Snow,Snow,0,2013-04-17 15:55:00
10:15 AM,28.4,23.0,80,29.72,1.0,ESE,3.5,-,0.02,Snow,Light Snow,120,2013-04-17 16:15:00
10:35 AM,26.6,21.2,80,29.72,2.5,SSE,3.5,-,0.04,Snow,Light Snow,150,2013-04-17 16:35:00
10:55 AM,28.4,23.0,80,29.72,2.5,ESE,5.8,-,0.05,Snow,Light Snow,110,2013-04-17 16:55:00
11:14 AM,26.6,21.2,80,29.73,0.8,SE,3.5,-,N/A,Snow,Light Snow,140,2013-04-17 17:14:00
11:35 AM,26.6,23.0,86,29.76,0.2,NNE,3.5,-,0.01,Snow,Heavy Snow,20,2013-04-17 17:35:00
11:55 AM,24.8,21.2,86,29.77,0.2,NNW,11.5,21.9,0.01,Snow,Snow,330,2013-04-17 17:55:00
12:15 PM,23.0,19.4,86,29.77,0.5,NNW,8.1,21.9,N/A,Snow,Snow,330,2013-04-17 18:15:00
12:35 PM,24.8,17.6,74,29.78,0.8,NNW,12.7,18.4,N/A,Snow,Light Snow,330,2013-04-17 18:35:00
12:55 PM,23.0,17.6,80,29.80,1.2,NW,11.5,18.4,N/A,Snow,Light Snow,320,2013-04-17 18:55:00
1:15 PM,24.8,17.6,74,29.81,0.8,NW,12.7,17.3,N/A,Snow,Light Snow,320,2013-04-17 19:15:00
1:35 PM,26.6,19.4,74,29.81,2.5,NNW,9.2,-,N/A,Snow,Light Snow,330,2013-04-17 19:35:00
1:55 PM,26.6,19.4,74,29.82,2.0,NNW,12.7,18.4,0.01,Snow,Light Snow,340,2013-04-17 19:55:00
2:35 PM,28.4,17.6,64,29.83,4.0,NNW,13.8,20.7,N/A,,Haze,330,2013-04-17 20:35:00
2:55 PM,28.4,15.8,59,29.84,10.0,North,13.8,20.7,N/A,,Overcast,350,2013-04-17 20:55:00
3:15 PM,28.4,14.0,55,29.84,10.0,NNW,12.7,20.7,N/A,,Overcast,340,2013-04-17 21:15:00
3:35 PM,28.4,14.0,55,29.85,10.0,North,10.4,-,N/A,,Overcast,350,2013-04-17 21:35:00
3:55 PM,30.2,14.0,51,29.85,10.0,North,10.4,18.4,N/A,,Overcast,350,2013-04-17 21:55:00
4:15 PM,28.4,12.2,51,29.85,10.0,NNW,11.5,19.6,N/A,,Overcast,330,2013-04-17 22:15:00
4:34 PM,28.4,12.2,51,29.85,10.0,NNW,10.4,17.3,N/A,,Overcast,330,2013-04-17 22:34:00
4:55 PM,28.4,12.2,51,29.86,10.0,NNW,11.5,19.6,N/A,,Overcast,340,2013-04-17 22:55:00
5:15 PM,28.4,12.2,51,29.87,10.0,North,8.1,18.4,N/A,,Overcast,350,2013-04-17 23:15:00
5:35 PM,28.4,12.2,51,29.87,10.0,NNW,8.1,16.1,N/A,,Overcast,330,2013-04-17 23:35:00
5:55 PM,28.4,12.2,51,29.88,10.0,NNW,11.5,19.6,N/A,,Overcast,340,2013-04-17 23:55:00
6:15 PM,24.8,12.2,59,29.89,10.0,NNW,13.8,19.6,N/A,,Overcast,340,2013-04-18 00:15:00
6:35 PM,23.0,12.2,63,29.89,10.0,NNW,13.8,18.4,N/A,,Overcast,330,2013-04-18 00:35:00
6:55 PM,23.0,12.2,63,29.90,10.0,NNW,12.7,19.6,N/A,,Overcast,330,2013-04-18 00:55:00
7:15 PM,21.2,12.2,68,29.92,10.0,NW,11.5,21.9,N/A,,Overcast,320,2013-04-18 01:15:00
7:35 PM,21.2,10.4,63,29.91,5.0,NW,16.1,24.2,N/A,,Haze,310,2013-04-18 01:35:00
7:55 PM,19.4,10.4,68,29.94,10.0,NW,15.0,23.0,N/A,,Overcast,310,2013-04-18 01:55:00
8:15 PM,19.4,10.4,68,29.95,10.0,NW,9.2,21.9,N/A,,Overcast,320,2013-04-18 02:15:00
8:35 PM,19.4,10.4,68,29.96,10.0,NNW,11.5,21.9,N/A,,Overcast,330,2013-04-18 02:35:00
8:55 PM,19.4,8.6,63,29.97,10.0,NNW,6.9,18.4,N/A,,Overcast,330,2013-04-18 02:55:00
9:15 PM,19.4,8.6,63,29.99,10.0,North,3.5,-,N/A,,Overcast,360,2013-04-18 03:15:00
9:35 PM,17.6,8.6,68,30.00,10.0,NNW,3.5,-,N/A,,Overcast,330,2013-04-18 03:35:00
9:50 PM,17.6,6.8,63,30.01,10.0,Calm,Calm,-,N/A,,Overcast,0,2013-04-18 03:50:00
10:15 PM,17.6,8.6,68,30.01,10.0,NNW,6.9,-,N/A,,Overcast,340,2013-04-18 04:15:00
10:32 PM,17.6,8.6,68,30.02,10.0,NNW,6.9,16.1,N/A,,Overcast,330,2013-04-18 04:32:00
10:52 PM,17.6,6.8,63,30.02,10.0,NNW,10.4,18.4,N/A,,Overcast,340,2013-04-18 04:52:00
11:11 PM,17.6,8.6,68,30.02,10.0,NNW,6.9,-,N/A,Snow,Light Snow,330,2013-04-18 05:11:00
11:32 PM,17.6,8.6,68,30.02,7.0,NNW,8.1,-,N/A,Snow,Light Snow,340,2013-04-18 05:32:00
11:53 PM,17.6,6.8,63,30.03,10.0,NNW,6.9,16.1,N/A,,Overcast,330,2013-04-18 05:53:00